Regional Weather Roundup
Issued by NWS

Home | Current Version | Previous Version | Graphics & Text | Print | Product List | Glossary On
Versions: 1 2 3 4 5 6 7 8 9 10 11 12 13 14 15 16 17 18 19 20 21 22 23 24 25 26 27 28 29 30 31 32 33 34 35 36 37 38 39 40 41 42 43 44 45 46 47 48 49 50
115
ASUS44 KMEG 061600
RWRTN
TENNESSEE HOURLY STATE WEATHER ROUNDUP
NATIONAL WEATHER SERVICE MEMPHIS TN
1000 AM CST SAT FEB 06 2016

TNZ002-004-019-021-049-052-054-088>092-061700-
WEST TENNESSEE

CITY           SKY/WX    TMP DP  RH WIND       PRES   REMARKS
MEMPHIS INTL   PTSUNNY   49  25  39 CALM      30.39S
NWS MEMPHIS      N/A     47 N/A N/A MISG        N/A
JACKSON        MOSUNNY   46  30  53 CALM      30.41R
DYERSBURG      SUNNY     46  28  49 SW5       30.42S
UNION CITY     SUNNY     43  30  61 SW5       30.38S
PARIS          SUNNY     45  25  45 W7        30.39S
LEXINGTON      SUNNY     43  25  49 SW3       30.39S
$$

TNZ008-025-027-028-033-062-065-066-061700-
NORTH MIDDLE TENNESSEE

CITY           SKY/WX    TMP DP  RH WIND       PRES   REMARKS
NASHVILLE      PTSUNNY   45  19  35 S3        30.41S
CLARKSVILLE    MOSUNNY   44  24  45 SW5       30.39S
COOKEVILLE       N/A     43  27  52 CALM      30.39S
CROSSVILLE     SUNNY     43  17  35 NE3       30.37S
$$

TNZ061-075-076-078-094-096-097-061700-
SOUTH MIDDLE TENNESSEE

CITY           SKY/WX    TMP DP  RH WIND       PRES   REMARKS
TULLAHOMA      SUNNY     45  10  24 CALM      30.39S
WINCHESTER     SUNNY     41  25  52 N5        30.39S
MCMINNVILLE    SUNNY     46  23  39 CALM      30.39S
COLUMBIA       SUNNY     43  30  61 CALM      30.38F
SHELBYVILLE    SUNNY     46  25  42 CALM      30.40F
$$

TNZ017-018-042-046-047-061700-
NORTHEAST TENNESSEE

CITY           SKY/WX    TMP DP  RH WIND       PRES   REMARKS
TRI CITIES     CLOUDY    34  22  61 CALM      30.40S
$$

TNZ012-013-036-069-073-074-061700-
CENTRAL EAST TENNESSEE

CITY           SKY/WX    TMP DP  RH WIND       PRES   REMARKS
KNOXVILLE      MOSUNNY   39  24  55 NE3       30.41S
OAK RIDGE      SUNNY     39  24  55 CALM      30.43S
GATLINBURG       N/A     37  21  52 CALM      30.40S
$$

TNZ083-085-099-061700-
SOUTHEAST TENNESSEE

CITY           SKY/WX    TMP DP  RH WIND       PRES   REMARKS
CHATTANOOGA    CLOUDY    39  26  59 CALM      30.41F
$$

SKY/WX REPORTED AS FAIR MEANS FEW OR NO CLOUDS BELOW
12 THOUSAND FEET.





USA.gov is the U.S. government's official web portal to all federal, state and local government web resources and services.